TimeCST,TemperatureF,Dew PointF,Humidity,Sea Level PressureIn,VisibilityMPH,Wind Direction,Wind SpeedMPH,Gust SpeedMPH,PrecipitationIn,Events,Conditions,WindDirDegrees,DateUTC
12:15 AM,61.7,40.5,46,30.07,10.0,NNE,10.4,-,N/A,,Clear,20,2013-02-08 06:15:00
12:35 AM,60.8,41.7,49,30.07,10.0,NNE,10.4,-,N/A,,Clear,20,2013-02-08 06:35:00
12:55 AM,60.3,43.0,53,30.07,10.0,NNE,11.5,-,N/A,,Clear,20,2013-02-08 06:55:00
1:15 AM,60.3,44.4,56,30.08,10.0,NNE,11.5,-,N/A,,Clear,20,2013-02-08 07:15:00
1:35 AM,59.0,44.1,58,30.08,10.0,NNE,12.7,19.6,N/A,,Clear,20,2013-02-08 07:35:00
1:55 AM,59.0,44.6,59,30.08,10.0,NNE,10.4,18.4,N/A,,Clear,20,2013-02-08 07:55:00
2:15 AM,58.3,43.9,59,30.08,10.0,NNE,9.2,17.3,N/A,,Clear,30,2013-02-08 08:15:00
2:35 AM,57.7,43.2,58,30.08,10.0,NNE,11.5,-,N/A,,Clear,20,2013-02-08 08:35:00
2:55 AM,57.7,42.3,56,30.08,10.0,NNE,11.5,16.1,N/A,,Clear,20,2013-02-08 08:55:00
3:15 AM,57.7,42.1,56,30.09,10.0,NNE,10.4,-,N/A,,Clear,30,2013-02-08 09:15:00
3:35 AM,57.6,42.8,58,30.10,10.0,NE,5.8,-,N/A,,Clear,50,2013-02-08 09:35:00
3:55 AM,55.4,41.2,59,30.11,10.0,NE,5.8,-,N/A,,Clear,40,2013-02-08 09:55:00
4:15 AM,54.0,41.2,62,30.13,10.0,NE,3.5,-,N/A,,Clear,40,2013-02-08 10:15:00
4:35 AM,55.4,41.0,58,30.14,10.0,Calm,Calm,-,N/A,,Clear,0,2013-02-08 10:35:00
4:55 AM,52.7,39.9,62,30.15,10.0,Calm,Calm,-,N/A,,Clear,0,2013-02-08 10:55:00
5:15 AM,54.3,40.3,59,30.16,10.0,Calm,Calm,-,N/A,,Clear,0,2013-02-08 11:15:00
5:55 AM,48.0,39.0,71,30.18,10.0,Calm,Calm,-,N/A,,Clear,0,2013-02-08 11:55:00
6:15 AM,47.7,39.4,73,30.18,10.0,Calm,Calm,-,N/A,,Clear,0,2013-02-08 12:15:00
6:35 AM,47.7,40.3,76,30.20,10.0,Calm,Calm,-,N/A,,Clear,0,2013-02-08 12:35:00
6:55 AM,46.9,39.6,76,30.20,10.0,Calm,Calm,-,N/A,,Clear,0,2013-02-08 12:55:00
7:15 AM,47.7,39.4,73,30.20,10.0,Calm,Calm,-,N/A,,Clear,0,2013-02-08 13:15:00
7:35 AM,45.0,39.4,81,30.20,10.0,Calm,Calm,-,N/A,,Clear,0,2013-02-08 13:35:00
7:55 AM,45.1,39.4,80,30.22,10.0,Calm,Calm,-,N/A,,Clear,0,2013-02-08 13:55:00
8:15 AM,47.7,41.4,79,30.23,10.0,Calm,Calm,-,N/A,,Clear,0,2013-02-08 14:15:00
8:35 AM,52.7,42.4,68,30.23,10.0,Calm,Calm,-,N/A,,Clear,0,2013-02-08 14:35:00
8:55 AM,55.4,41.2,59,30.23,10.0,NNE,3.5,-,N/A,,Clear,30,2013-02-08 14:55:00
9:15 AM,55.4,37.9,52,30.23,10.0,NNE,4.6,-,N/A,,Clear,30,2013-02-08 15:15:00
9:35 AM,57.4,38.8,50,30.24,10.0,NE,6.9,-,N/A,,Clear,50,2013-02-08 15:35:00
9:55 AM,57.7,38.5,49,30.24,10.0,East,4.6,-,N/A,,Clear,80,2013-02-08 15:55:00
10:15 AM,57.7,37.2,46,30.25,10.0,NE,5.8,-,N/A,,Clear,50,2013-02-08 16:15:00
10:35 AM,58.8,36.9,44,30.25,10.0,NE,4.6,-,N/A,,Clear,40,2013-02-08 16:35:00
10:55 AM,60.3,37.4,43,30.25,10.0,ENE,4.6,-,N/A,,Clear,60,2013-02-08 16:55:00
11:15 AM,60.6,36.3,40,30.25,10.0,NNE,6.9,-,N/A,,Clear,30,2013-02-08 17:15:00
11:35 AM,62.2,35.2,37,30.24,10.0,Calm,Calm,-,N/A,,Clear,0,2013-02-08 17:35:00
11:55 AM,64.9,36.1,34,30.24,10.0,ENE,6.9,-,N/A,,Clear,70,2013-02-08 17:55:00
12:15 PM,65.3,36.3,34,30.22,10.0,East,8.1,-,N/A,,Clear,90,2013-02-08 18:15:00
12:35 PM,65.5,36.5,34,30.20,10.0,East,8.1,-,N/A,,Clear,90,2013-02-08 18:35:00
12:55 PM,67.1,38.3,35,30.18,10.0,East,10.4,-,N/A,,Clear,90,2013-02-08 18:55:00
1:15 PM,68.0,38.5,34,30.17,10.0,East,6.9,-,N/A,,Clear,90,2013-02-08 19:15:00
1:35 PM,68.0,37.2,32,30.16,10.0,East,9.2,-,N/A,,Clear,90,2013-02-08 19:35:00
1:55 PM,68.0,36.7,32,30.14,10.0,East,5.8,-,N/A,,Clear,90,2013-02-08 19:55:00
2:15 PM,69.8,37.8,31,30.13,10.0,East,6.9,-,N/A,,Clear,100,2013-02-08 20:15:00
2:35 PM,70.3,37.6,30,30.13,10.0,East,3.5,-,N/A,,Clear,100,2013-02-08 20:35:00
2:55 PM,70.3,36.5,29,30.12,10.0,SSE,3.5,-,N/A,,Mostly Cloudy,160,2013-02-08 20:55:00
3:15 PM,70.3,35.2,28,30.11,10.0,ESE,10.4,-,N/A,,Mostly Cloudy,120,2013-02-08 21:15:00
3:35 PM,71.8,36.0,27,30.10,10.0,ESE,6.9,-,N/A,,Mostly Cloudy,110,2013-02-08 21:35:00
3:55 PM,72.5,36.3,27,30.10,10.0,SE,10.4,-,N/A,,Overcast,140,2013-02-08 21:55:00
4:15 PM,72.3,34.7,25,30.09,7.0,East,8.1,-,N/A,,Overcast,100,2013-02-08 22:15:00
4:35 PM,70.9,32.9,25,30.08,10.0,SSE,9.2,-,N/A,,Overcast,150,2013-02-08 22:35:00
4:55 PM,70.3,32.2,24,30.09,10.0,SE,11.5,-,N/A,,Scattered Clouds,140,2013-02-08 22:55:00
5:15 PM,70.3,32.5,25,30.09,10.0,SE,6.9,-,N/A,,Clear,130,2013-02-08 23:15:00
5:35 PM,68.0,32.9,27,30.08,10.0,SE,8.1,-,N/A,,Clear,130,2013-02-08 23:35:00
5:55 PM,68.0,33.3,28,30.08,10.0,SE,6.9,-,N/A,,Clear,140,2013-02-08 23:55:00
6:15 PM,68.0,34.3,29,30.08,10.0,SE,8.1,-,N/A,,Clear,130,2013-02-09 00:15:00
6:35 PM,65.3,33.4,31,30.08,10.0,ESE,5.8,-,N/A,,Clear,120,2013-02-09 00:35:00
6:55 PM,62.8,32.7,32,30.08,10.0,ESE,5.8,-,N/A,,Clear,110,2013-02-09 00:55:00
7:15 PM,62.6,32.9,33,30.08,10.0,ESE,8.1,-,N/A,,Clear,120,2013-02-09 01:15:00
7:35 PM,61.7,32.9,34,30.08,10.0,ESE,5.8,-,N/A,,Clear,110,2013-02-09 01:35:00
7:55 PM,60.3,33.3,36,30.09,10.0,Calm,Calm,-,N/A,,Clear,0,2013-02-09 01:55:00
8:15 PM,60.3,34.3,38,30.10,10.0,ESE,3.5,-,N/A,,Mostly Cloudy,120,2013-02-09 02:15:00
8:35 PM,60.3,35.1,39,30.10,10.0,ESE,4.6,-,N/A,,Mostly Cloudy,120,2013-02-09 02:35:00
8:55 PM,57.7,34.0,41,30.09,10.0,East,4.6,-,N/A,,Scattered Clouds,100,2013-02-09 02:55:00
9:15 PM,57.7,34.7,42,30.10,10.0,ESE,4.6,-,N/A,,Scattered Clouds,110,2013-02-09 03:15:00
9:35 PM,57.7,35.6,44,30.09,10.0,East,4.6,-,N/A,,Scattered Clouds,100,2013-02-09 03:35:00
9:55 PM,57.7,34.3,41,30.09,10.0,East,4.6,-,N/A,,Mostly Cloudy,100,2013-02-09 03:55:00
10:15 PM,55.8,33.8,44,30.09,10.0,East,5.8,-,N/A,,Scattered Clouds,80,2013-02-09 04:15:00
10:35 PM,55.4,34.5,45,30.08,10.0,ENE,6.9,-,N/A,,Scattered Clouds,70,2013-02-09 04:35:00
10:55 PM,55.4,36.0,48,30.07,10.0,NE,5.8,-,N/A,,Mostly Cloudy,50,2013-02-09 04:55:00
11:15 PM,54.5,36.1,50,30.07,10.0,East,5.8,-,N/A,,Scattered Clouds,90,2013-02-09 05:15:00
11:35 PM,57.2,37.8,48,30.07,10.0,East,5.8,-,N/A,,Mostly Cloudy,100,2013-02-09 05:35:00
11:55 PM,57.7,37.9,48,30.07,10.0,East,6.9,-,N/A,,Overcast,100,2013-02-09 05:55:00